Flag for U.S.A. Weather past 2 weeks in Naples, Florida, U.S.A.

Now
72 °F

Partly cloudy.


Feels Like: 71 °F
Forecast: 72 / 83 °F
Wind: 13 mph from Northeast

Location: Naples Municipal

Current Time: Oct 23, 2014 at 6:23:16 AM

Latest Report: Oct 23, 2014 at 5:53 AM


Visibility: 10 mi

Pressure: 29.88 "Hg

Humidity: 84%

Dew point: 67 °F

Location of NaplesLocation

Historic Weather in Naples — Graph

°F

Naples temperature yesterday

Maximum temperature yesterday: 83 °F (at 2:53 PM)
Minimum temperature yesterday: 73 °F (at 2:53 AM)
Average temperature yesterday: 77 °F

Past Weeks' High & Low Weather Summary

 TemperatureHumidityPressure
High91 °F (Oct 11, 2:53 PM)96% (Oct 15, 5:53 AM)30.11 "Hg (Oct 15, 5:53 AM)
Low63 °F (Oct 18, 6:53 AM)39% (Oct 9, 3:53 PM)29.87 "Hg (Oct 23, 3:53 AM)
Average78 °F74%29.97 "Hg
* Reported Oct 8 4:53 AM — Oct 23 4:53 AM, Naples, Weather by CustomWeather, © 2014

Note: Actual official high and low records may vary slightly from our data, if they occured in-between our weather recording intervals... More about our weather records

Advertising

Naples weather history for previous 24 hours

 ConditionsComfort  
Time TempWeatherWind HumidityBarometerVisibility
4:53 AM
Oct 23
73 °FPassing clouds.8 mph88%29.88 "Hg10 mi
3:53 AM74 °FPassing clouds.8 mph91%29.87 "Hg10 mi
2:53 AM75 °FOvercast.9 mph90%29.89 "Hg10 mi
1:53 AM75 °FClear.7 mph90%29.91 "Hg10 mi
12:53 AM75 °FPassing clouds.5 mph90%29.92 "Hg10 mi
11:53 PM
Oct 22
76 °FClear.3 mph88%29.93 "Hg10 mi
10:53 PM77 °FClear.3 mph85%29.93 "Hg10 mi
9:53 PM78 °FPassing clouds.No wind79%29.93 "Hg10 mi
8:53 PM78 °FClear.No wind79%29.93 "Hg10 mi
7:53 PM79 °FClear.3 mph74%29.92 "Hg10 mi
6:53 PM80 °FSunny.3 mph71%29.91 "Hg10 mi
5:53 PM81 °FSunny.6 mph67%29.90 "Hg10 mi
4:53 PM82 °FSunny.6 mph65%29.90 "Hg10 mi
3:53 PM82 °FSunny.6 mph65%29.90 "Hg10 mi
2:53 PM83 °FSunny.8 mph65%29.90 "Hg10 mi
1:53 PM82 °FSunny.10 mph67%29.92 "Hg10 mi
12:53 PM80 °FBroken clouds.6 mph71%29.96 "Hg10 mi
11:53 AM80 °FSunny.7 mph69%29.97 "Hg10 mi
10:53 AM81 °FSunny.7 mph69%29.96 "Hg10 mi
9:53 AM78 °FSunny.No wind82%29.97 "Hg10 mi
8:53 AM74 °FOvercast.3 mph91%29.96 "Hg10 mi
7:53 AM73 °FOvercast.No wind94%29.94 "Hg10 mi
6:53 AM73 °FPassing clouds.3 mph94%29.93 "Hg10 mi
Weather by CustomWeather, © 2014

See weather overviewHow to use our weather pages